Regional Weather Roundup
Issued by NWS

Home | Current Version | Previous Version | Text Only | Print | Product List | Glossary Off
Versions: 1 2 3 4 5 6 7 8 9 10 11 12 13 14 15 16 17 18 19 20 21 22 23 24 25 26 27 28 29 30 31 32 33 34 35 36 37 38 39 40 41 42 43 44 45 46 47 48 49 50

000
ASUS45 KABQ 222110
RWRNM
WEATHER ROUNDUP FOR NEW MEXICO
NATIONAL WEATHER SERVICE ALBUQUERQUE NM
200 PM MST MON DEC 22 2014

NOTE: "FAIR" MEANS FEW OR NO CLOUDS BELOW 12,000 FEET AGL WITH NO
       SIGNIFICANT WEATHER OR OBSTRUCTIONS TO VISION.

      THIS PRODUCT IS RELEASED AS TWO VERSIONS.  ONE VERSION NEAR
      THE TOP OF THE HOUR CONTAINING PRELIMINARY DATA FROM ALBUQUERQUE
      AND OTHER STATIONS.  A FINAL VERSION WITH ADDITIONAL DATA IS
      ISSUED ABOUT 10 MINUTES AFTER THE HOUR.

NMZ501-503-504-510>518-222200-
NORTHWEST PLATEAU/NORTHCENTRAL MOUNTAINS

CITY           SKY/WX    TMP DP  RH WIND       PRES   REMARKS
FARMINGTON     LGT RAIN  42  37  82 NW22G36   29.78S
LOS ALAMOS     DRIZZLE   45  29  52 W21G40    29.71F
SANTA FE       PTSUNNY   51  30  44 W23G39    29.68F
TAOS           CLOUDY    41  28  60 W23G32    29.65F
ANGEL FIRE     LGT SNOW  33  30  89 NW9G23    29.65F VSB 1   WCI  25

$$
NMZ402-403-502-505>509-222200-
WESTCENTRAL MOUNTAINS/SOUTHWEST MOUNTAINS

CITY           SKY/WX    TMP DP  RH WIND       PRES   REMARKS
GALLUP         MOSUNNY   52  32  46 W17G31    29.86S
GRANTS         PTSUNNY   54  29  38 W20G39    29.82F
SILVER CITY    SUNNY     57  32  38 W22       29.85F

$$
NMZ407-409-411-412-222200-
SOUTHERN DESERTS

CITY           SKY/WX    TMP DP  RH WIND       PRES   REMARKS
LORDSBURG      FAIR      57  36  44 NW10      29.87F
DEMING         SUNNY     61  34  36 W28G35    29.82F
LAS CRUCES     SUNNY     63  33  32 SW22G31   29.78F
HOLLOMAN AFB   MOSUNNY   65  33  30 SW9       29.74F
ALAMOGORDO     MOSUNNY   63  32  31 SW3       29.76F
T OR C         MOSUNNY   64  32  30 S13       29.75F

$$
NMZ519>523-222200-
CENTRAL VALLEYS/CENTRAL HIGHLANDS

CITY           SKY/WX    TMP DP  RH WIND       PRES   REMARKS
ALBUQUERQUE    PTSUNNY   60  26  27 NW26G32   29.70F
DOUBLE EAGLE   PTSUNNY   57  27  30 W29G35    29.73F
MORIARTY ARPT  CLOUDY    53  27  35 W20G29    29.71F
CLINES CORNERS PTSUNNY   52  29  41 W33G48    29.66F
BELEN          FAIR      62  29  29 W23G31    29.72F
SOCORRO        FAIR      66  31  26 W12G24    29.71F

$$
NMZ524>526-539-540-222200-
SOUTHCENTRAL MOUNTAINS

CITY           SKY/WX    TMP DP  RH WIND       PRES   REMARKS
RUIDOSO        SUNNY     54  27  35 W22G36    29.76F

$$
NMZ527>531-222200-
NORTHEAST HIGHLANDS/NORTHEAST PLAINS

CITY           SKY/WX    TMP DP  RH WIND       PRES   REMARKS
LAS VEGAS      PTSUNNY   53  19  26 NW30G47   29.62F
RATON          LGT SNOW  30  28  92 E15       29.65F VSB 1   WCI  19
CLAYTON        CLOUDY    34  30  85 SW12      29.71R WCI  25

$$
NMZ532>537-222200-
EASTCENTRAL PLAINS

CITY           SKY/WX    TMP DP  RH WIND       PRES   REMARKS
TUCUMCARI      CLOUDY    50  21  32 E17       29.67F
CANNON AFB     MOSUNNY   51  24  35 E9        29.67F
CLOVIS AIRPORT CLOUDY    52  25  35 E10       29.68F

$$
NMZ028-029-538-222200-
SOUTHEAST PLAINS

CITY           SKY/WX    TMP DP  RH WIND       PRES   REMARKS
ROSWELL        MOSUNNY   72  28  19 NW18      29.61F
ARTESIA        PTSUNNY   70  30  23 SW14      29.64F
CARLSBAD       PTSUNNY   70  30  22 W18       29.64F
HOBBS          SUNNY     57  34  41 NE5       29.68F


$$



USA.gov is the U.S. government's official web portal to all federal, state and local government web resources and services.